This is the latest recevied weather packets stored in our database for station/object W5TUX. If no packets are shown the sender has not sent any weather packets the latest 1 day(s).
| Time | Temp. | Humidity | Pressure | Rain* | Wind** | Luminosity | Snow |
|---|---|---|---|---|---|---|---|
| 1777991999 | 23.89° C | 78% | 1009.9 hPa | 0 mm | 1.34 m/s, 219° | 191 W/m² | - |
| 1777991696 | 23.89° C | 78% | 1009.8 hPa | 0 mm | 1.34 m/s, 236° | 125 W/m² | - |
| 1777991393 | 23.89° C | 79% | 1009.9 hPa | 0 mm | 1.34 m/s, 242° | 136 W/m² | - |
| 1777991090 | 23.33° C | 80% | 1009.9 hPa | 0 mm | 1.79 m/s, 241° | 154 W/m² | - |
| 1777990788 | 23.33° C | 80% | 1009.6 hPa | 0 mm | 0.89 m/s, 197° | 166 W/m² | - |
| 1777990485 | 23.33° C | 79% | 1009.8 hPa | 0 mm | 1.34 m/s, 218° | 129 W/m² | - |
| 1777990182 | 23.33° C | 79% | 1009.9 hPa | 0 mm | 2.68 m/s, 226° | 116 W/m² | - |
| 1777989878 | 23.33° C | 80% | 1009.9 hPa | 0 mm | 0.89 m/s, 205° | 129 W/m² | - |
| 1777989575 | 23.33° C | 80% | 1010.1 hPa | 0 mm | 1.34 m/s, 228° | 94 W/m² | - |
| 1777989272 | 23.33° C | 80% | 1010 hPa | 0 mm | 4.02 m/s, 218° | 87 W/m² | - |
| 1777988968 | 22.78° C | 81% | 1009.8 hPa | 0 mm | 2.24 m/s, 229° | 76 W/m² | - |
| 1777988665 | 22.78° C | 81% | 1010.1 hPa | 0 mm | 2.24 m/s, 218° | 51 W/m² | - |
| 1777988361 | 22.78° C | 82% | 1009.9 hPa | 0 mm | 1.34 m/s, 228° | 50 W/m² | - |
| 1777988059 | 22.78° C | 81% | 1010.1 hPa | 0 mm | 0.89 m/s, 231° | 41 W/m² | - |
| 1777987754 | 22.78° C | 82% | 1009.8 hPa | 0 mm | 1.34 m/s, 222° | 67 W/m² | - |
| 1777987451 | 22.78° C | 81% | 1009.8 hPa | 0 mm | 3.58 m/s, 265° | 86 W/m² | - |
| 1777987149 | 22.78° C | 82% | 1009.7 hPa | 0 mm | 1.34 m/s, 206° | 86 W/m² | - |
| 1777986845 | 22.78° C | 82% | 1010 hPa | 0 mm | 2.24 m/s, 232° | 62 W/m² | - |
| 1777986543 | 22.78° C | 82% | 1009.9 hPa | 0 mm | 1.79 m/s, 210° | 53 W/m² | - |
| 1777986241 | 22.78° C | 82% | 1009.8 hPa | 0 mm | 4.02 m/s, 162° | 56 W/m² | - |
| 1777985938 | 22.78° C | 82% | 1009.7 hPa | 0 mm | 1.34 m/s, 214° | 31 W/m² | - |
| 1777985636 | 22.22° C | 82% | 1009.6 hPa | 0 mm | 1.34 m/s, 97° | 42 W/m² | - |
| 1777985332 | 22.22° C | 82% | 1009.7 hPa | 0 mm | 2.68 m/s, 221° | 29 W/m² | - |
| 1777985029 | 22.22° C | 82% | 1009.8 hPa | 0 mm | 0.89 m/s, 224° | 34 W/m² | - |
| 1777984725 | 22.78° C | 82% | 1009.5 hPa | 0 mm | 1.34 m/s, 229° | 30 W/m² | - |
* Rain latest hour (hover to see other rain measurements)
** Current wind speed in m/s (hover to see current wind gust speed)